Miscellaneous Local Product
Issued by NWS North Platte, NE

Home | Current Version | Previous Version | Text Only | Print | Product List | Glossary On
Versions: 1 2 3 4 5 6 7 8 9 10 11 12 13 14 15 16 17 18 19 20 21 22 23 24 25 26 27 28 29 30 31 32 33 34 35 36 37 38 39 40 41 42 43 44 45 46 47 48 49 50
000
AXUS43 KLBF 200410
MISLBF


WESTERN AND NORTH CENTRAL NEBRASKA HOURLY WEATHER ROUNDUP
NATIONAL WEATHER SERVICE NORTH PLATTE NE
1100 PM CDT SAT APR 19 2014

***STATIONS NOT REPORTING VARIABLES SUCH AS SKY/WEATHER OR
PRESSURE ARE PROVIDED BY THE NEBRASKA DEPARTMENT OF
ROADS...RAWS...AND APRS NETWORKS...AND ARE NOT UNDER
NATIONAL WEATHER SERVICE QUALITY CONTROL***

...OBSERVATIONS IN AND NEAR THE EASTERN PANHANDLE OF NEBRASKA...

CITY           SKY/WX    TMP DP  RH WIND       PRES   REMARKS
PINE RIDGE     PTCLDY    46  30  53 NE7       30.02R
CHADRON        CLEAR     46  36  68 SE8       30.00R
ALLIANCE       CLEAR     40  31  70 S5        30.03R
SIDNEY         CLEAR     43  33  68 W9        30.06R
WHITECLAY        N/A     45  28  51 E8          N/A
CRESCENT LAKE    N/A     50  33  53 S3          N/A
LISCO            N/A     50  30  46 CALM        N/A
BIG SPRINGS      N/A     55  41  60 CALM        N/A
LEWELLEN         N/A     50  37  62 CALM        N/A
$$

...OBSERVATIONS IN SOUTHWEST NEBRASKA AND FAR NORTHEAST COLORADO...

CITY           SKY/WX    TMP DP  RH WIND       PRES   REMARKS
WRAY           CLOUDY    54  43  66 E8        30.04R
HOLYOKE        FAIR      52  39  62 SE5       30.03S
IMPERIAL       CLEAR     49  41  74 E9        30.01S
OGALLALA       CLEAR     54  39  58 CALM      30.01S
NORTH PLATTE   PTCLDY    49  42  77 E6        30.01R
MCCOOK         TSTM      58  51  78 SE3       30.01R
LEXINGTON      CLEAR     57  49  75 NE6       29.99S
PAXTON           N/A     58  44  59 CALM        N/A
SUTHERLAND       N/A     52  40  64 E6          N/A
MEDICINE CREEK   N/A     58  50  75 CALM        N/A
GOTHENBURG       N/A     58  49  71 CALM        N/A
CALLAWAY         N/A     59  49  68 N8          N/A
$$

...OBSERVATIONS IN NORTH CENTRAL NEBRASKA...

CITY           SKY/WX    TMP DP  RH WIND       PRES   REMARKS
VALENTINE      PTCLDY    46  17  31 CALM      30.03S
THEDFORD       MOCLDY    56  36  47 E5        30.03F
AINSWORTH      MOCLDY    53  29  41 NE6       30.03F
O`NEILL        CLOUDY    57  30  35 NE7       30.02S
ORD            MOCLDY    58  43  57 N7        29.99R
BROKEN BOW     MOCLDY    56  42  59 N10       30.00S
BROWNLEE         N/A     57  26  30 E8          N/A
SPRINGVIEW       N/A     50  28  43 CALM        N/A
DUNNING          N/A     56  39  52 E6          N/A
BREWSTER         N/A     55  40  56 N5          N/A
ROSE             N/A     58  42  54 N5          N/A
NEWPORT          N/A     55  35  47 CALM        N/A
COMSTOCK         N/A     57  48  73 N3          N/A
CHAMBERS         N/A     59  36  41 NE5         N/A
EWING            N/A     59  40  48 NE5         N/A
$$

...SOME WEATHER OBSERVATIONS FROM AROUND THE REGION...

CITY           SKY/WX    TMP DP  RH WIND       PRES   REMARKS
DENVER         CLOUDY    52  47  83 W9        30.12R
LARAMIE        MOCLDY    43  37  79 S9        30.11R
CHEYENNE       PTCLDY    48  40  73 SW10      30.09S
SCOTTSBLUFF    PTCLDY    52  35  52 E7        30.04R
RAPID CITY     PTCLDY    45  30  55 CALM      30.00S
PIERRE         MOCLDY    46  28  49 NE5       30.00S
WINNER         FAIR      51  18  27 S8        30.02S
SIOUX FALLS    CLOUDY    57  40  52 N3        30.02S
OMAHA          MOCLDY    70  43  37 S18       29.99S
GRAND ISLAND   PTCLDY    62  51  67 SE7       29.95R
KANSAS CITY    PTCLDY    60  44  55 SE8       30.09S
WICHITA        PTCLDY    66  48  52 S15       30.04R
HAYS           CLOUDY    70  48  46 SW10      29.99R
LIBERAL        PTCLDY    59  45  58 S7        30.04R
GOODLAND       CLOUDY    55  50  83 E8        30.03R
$$



USA.gov is the U.S. government's official web portal to all federal, state and local government web resources and services.